sat.trackr.live / text

‹ back to catalog

STARLINK-3239

NORAD 49743 · 2021-115V

PAYLOAD ACTIVE UNKNOWN

§ Identity

Operator
Country
US
Launch date
2021-12-02
Launch site
AFETR
Launch vehicle
Mass (kg)
RCS (m²)

Purposes: comms

External: N2YO · Heavens-Above · Gunter

§ Orbital elements

Epoch: 2026-09-19T18:36:44.252352Z

Period
94.01 min
Inclination
53.1618°
Eccentricity
0.0001025
Mean motion
15.31705707 rev/d
Perigee alt
470.0 km
Apogee alt
471.4 km
Semi-major
6,848.9 km
B*
4.5069e-5
RAAN
343.2219°
Arg perigee
52.4148°
Mean anomaly
307.6947°
Rev number
26,503

§ Raw data

STARLINK-32391 49743U 21115V   26262.77551218  .00001034  00000+0  45069-4 0  99962 49743  53.1618 343.2219 0001025  52.4148 307.6947 15.31705707265037

JSON: /api/v1/satellites/49743 · /tle

For live sub-satellite position, see the globe view (requires WebGL).

§ Visibility from observer

Set your observer location to see the next 7 days of passes ≥ 10°. The values pass through the URL so the page stays shareable.

No JS? Fill the form by hand. The geolocation button needs JavaScript.